Location: Nairn
(57.5833°N, 3.8667°W)
Time: 20:24:59
(UTC+00:00)

Tiros 1 - Pass Details

Date: 27 November 2020
Orbit: 630 x 663 km, 48.4° (Epoch: 22 January)

Event Time Altitude Azimuth Distance (km) Brightness Sun altitude
Rises 21:04:23 0° 265° (W) 2,983 11.2 -41.4°
Enters shadow 21:05:49 - 258° (WSW) 2,520 10.7 -41.6°
Reaches altitude 10° 21:07:27 10° 246° (WSW) 2,063 - -41.8°
Maximum altitude 21:10:27 17° 206° (SSW) 1,647 - -42.1°
Drops below altitude 10° 21:13:26 10° 167° (SSE) 2,044 - -42.5°
Sets 21:16:27 0° 147° (SSE) 2,944 - -42.8°
